EW1931 Weather Reports


time (UTC)temp
F
wind
direction
speed
knots
gust
knots
rain 1hr
in
rain 24hr
in
rain mn
in
humidity
%
barometer
mb
20220629041507 73 175 7.8 12.2 0.00 0.00 0.00 43 996.5
20220629040011 72 144 5.2 8.7 0.00 0.00 0.00 43 996.6
20220629034510 74 128 5.2 7.0 0.00 0.00 0.00 40 996.3
20220629033010 76 135 4.3 7.8 0.00 0.00 0.00 38 996.6
20220629031518 77 164 5.2 7.0 0.00 0.00 0.00 37 996.8
20220629030008 79 162 4.3 7.0 0.00 0.00 0.00 35 996.6
20220629024508 80 183 7.0 13.9 0.00 0.00 0.00 33 996.8
20220629023008 82 184 10.4 13.9 0.00 0.00 0.00 31 996.8
20220629021507 84 150 16.5 24.3 0.00 0.00 0.00 31 996.4
20220629020009 83 106 9.6 14.8 0.00 0.00 0.00 34 996.4
20220629014503 83 128 6.1 12.2 0.00 0.00 0.00 36 996.4
20220629013006 82 151 12.2 26.1 0.00 0.00 0.00 37 996.5
20220629011607 87 165 13.9 17.4 0.00 0.00 0.00 32 997.3
20220629010058 86 134 11.3 17.4 0.00 0.00 0.00 28 997.0
20220629004557 86 132 12.2 19.1 0.00 0.00 0.00 28 997.1
20220629003059 88 129 16.5 20.0 0.00 0.00 0.00 27 997.2
20220629001555 88 119 12.2 16.5 0.00 0.00 0.00 27 997.2
20220629000056 88 103 12.2 20.9 0.00 0.00 0.00 27 997.6
20220628234557 89 128 9.6 13.9 0.00 0.00 0.00 27 998.1
20220628233100 87 159 8.7 16.5 0.00 0.00 0.00 26 998.7
20220628231549 88 171 12.2 17.4 0.00 0.00 0.00 26 998.7
20220628230055 87 113 10.4 16.5 0.00 0.00 0.00 29 999.0
20220628224545 87 117 9.6 15.6 0.00 0.00 0.00 29 999.4
20220628223042 88 145 10.4 15.6 0.00 0.00 0.00 26 999.9
20220628221541 88 133 10.4 17.4 0.00 0.00 0.00 26 1000.0
20220628220041 89 148 13.9 20.0 0.00 0.00 0.00 25 1000.2
20220628214537 89 146 8.7 18.2 0.00 0.00 0.00 23 1000.7
20220628213037 88 130 9.6 20.9 0.00 0.00 0.00 23 1000.8
20220628211545 88 137 11.3 18.2 0.00 0.00 0.00 23 1001.2
20220628210036 88 154 11.3 15.6 0.00 0.00 0.00 24 1001.4
20220628204533 86 138 7.8 16.5 0.00 0.00 0.00 24 1001.5
20220628203031 87 135 7.0 15.6 0.00 0.00 0.00 24 1001.8
20220628201527 85 128 10.4 13.9 0.00 0.00 0.00 28 1001.9
20220628200024 83 69 7.0 13.0 0.00 0.00 0.00 31 1002.2
20220628194531 83 81 7.0 14.8 0.00 0.00 0.00 33 1002.6
20220628193015 81 73 7.0 14.8 0.00 0.00 0.00 36 1002.9
20220628191512 80 99 6.1 14.8 0.00 0.00 0.00 35 1003.4
20220628190007 79 104 7.8 13.0 0.00 0.00 0.00 36 1003.6
20220628184505 77 25 6.1 12.2 0.00 0.00 0.00 39 1004.3
20220628183002 77 78 7.8 13.0 0.00 0.00 0.00 39 1004.5
20220628181600 75 69 13.9 18.2 0.00 0.00 0.00 41 1004.2
20220628180058 74 22 8.7 12.2 0.00 0.00 0.00 42 1005.7
20220628174600 73 42 8.7 11.3 0.00 0.00 0.00 43 1005.8
20220628173056 72 5 7.8 11.3 0.00 0.00 0.00 43 1006.0
20220628171557 74 60 8.7 13.0 0.00 0.00 0.00 41 1005.9
20220628170102 73 54 5.2 14.8 0.00 0.00 0.00 43 1005.9
20220628164557 72 44 7.8 18.2 0.00 0.00 0.00 43 1005.5
20220628163054 71 52 9.6 13.9 0.00 0.00 0.00 46 1005.4
20220628161559 70 80 7.0 10.4 0.00 0.00 0.00 47 1005.6
20220628160046 69 83 5.2 10.4 0.00 0.00 0.00 49 1006.2
20220628154542 68 56 6.1 8.7 0.00 0.00 0.00 50 1006.7
20220628153039 67 43 7.8 12.2 0.00 0.00 0.00 54 1006.8
20220628151536 66 27 9.6 13.9 0.00 0.00 0.00 56 1006.9
20220628150033 65 33 9.6 13.9 0.00 0.00 0.00 57 1007.0
20220628144539 64 36 11.3 13.9 0.00 0.00 0.00 60 1006.9
20220628143028 62 18 8.7 13.9 0.00 0.00 0.00 62 1007.4
20220628141526 61 49 10.4 14.8 0.00 0.00 0.00 63 1007.1
20220628140026 60 46 11.3 15.6 0.00 0.00 0.00 66 1006.9
20220628134526 59 44 11.3 14.8 0.00 0.00 0.00 68 1007.0
20220628133025 58 19 11.3 14.8 0.00 0.00 0.00 68 1007.2
20220628131528 57 32 11.3 14.8 0.00 0.00 0.00 69 1007.0
20220628130023 56 38 8.7 13.0 0.00 0.00 0.00 70 1007.2
20220628124521 55 32 7.0 11.3 0.00 0.00 0.00 70 1007.3
20220628123020 54 21 7.8 13.0 0.00 0.00 0.00 68 1007.3
20220628121518 54 13 9.6 13.0 0.00 0.00 0.00 67 1007.0
20220628120019 53 19 7.8 12.2 0.00 0.00 0.00 66 1006.9
20220628114514 53 20 7.8 11.3 0.00 0.00 0.00 65 1006.9
20220628113012 52 341 7.0 10.4 0.00 0.00 0.00 64 1006.6
20220628111511 53 13 7.8 10.4 0.00 0.00 0.00 61 1006.5
20220628110007 53 360 5.2 7.8 0.00 0.00 0.00 59 1006.2
20220628104505 53 5 5.2 7.0 0.00 0.00 0.00 56 1006.3
20220628103003 56 317 4.3 7.8 0.00 0.00 0.00 51 1006.1
20220628101505 57 5 3.5 5.2 0.00 0.00 0.00 50 1006.1
20220628100003 56 347 2.6 4.3 0.00 0.00 0.00 51 1006.3
20220628094502 56 360 4.3 7.0 0.00 0.00 0.00 51 1006.2
20220628093000 58 48 5.2 8.7 0.00 0.00 0.00 47 1006.0
20220628091600 58 59 4.3 7.0 0.00 0.00 0.00 48 1006.0
20220628090100 58 60 5.2 7.8 0.00 0.00 0.00 49 1006.0
20220628084600 56 11 3.5 6.1 0.00 0.00 0.00 52 1006.1
20220628083101 55 72 5.2 7.8 0.00 0.00 0.00 52 1006.0
20220628081556 55 23 4.3 6.1 0.00 0.00 0.00 53 1006.0
20220628080054 58 92 4.3 7.0 0.00 0.00 0.00 47 1006.0
20220628074553 58 92 5.2 7.8 0.00 0.00 0.00 47 1006.1
20220628073051 58 76 3.5 7.0 0.00 0.00 0.00 48 1006.2
20220628071549 58 107 6.1 7.8 0.00 0.00 0.00 48 1006.1
20220628070047 60 114 7.0 8.7 0.00 0.00 0.00 46 1006.1
20220628064548 60 113 6.1 8.7 0.00 0.00 0.00 45 1006.3
20220628063042 61 113 6.1 8.7 0.00 0.00 0.00 45 1006.3
20220628061541 63 125 7.8 8.7 0.00 0.00 0.00 42 1006.3
20220628060038 62 123 5.2 7.8 0.00 0.00 0.00 43 1006.5
20220628054540 59 111 4.3 7.0 0.00 0.00 0.00 50 1006.6
20220628053036 58 60 3.5 5.2 0.00 0.00 0.00 52 1006.7
20220628051539 59 64 3.5 4.3 0.00 0.00 0.00 50 1006.7
20220628050034 61 70 3.5 4.3 0.00 0.00 0.00 46 1006.7
20220628044535 62 80 3.5 6.1 0.00 0.00 0.00 44 1006.7
20220628043034 63 78 4.3 7.0 0.00 0.00 0.00 42 1006.8